When you browse on this site, cookies collect data to enhance your experience and personalize the content and advertising you see.
Visit our Privacy Policy to learn more. By continuing to use the site, you agree to this use of cookies and data.

Stündliche Wetter Zastav'je

Heute, 7 August, Freitag

Zeit Temperatur Niederschläge Wind Luftdruck Luftfeuchtigkeit
00:00 +20°C° 0 mm 2 m/S 738 mmHg 73%
01:00 +20°C° 0 mm 2 m/S 739 mmHg 74%
02:00 +19°C° 0 mm 2 m/S 739 mmHg 76%
03:00 +19°C° 0 mm 2 m/S 739 mmHg 78%
04:00 +18°C° 0 mm 2 m/S 739 mmHg 80%
05:00 +18°C° 0 mm 2 m/S 738 mmHg 83%
06:00 +19°C° 0 mm 2 m/S 739 mmHg 79%
07:00 +21°C° 0 mm 2 m/S 739 mmHg 75%
08:00 +22°C° 0 mm 3 m/S 739 mmHg 71%
09:00 +25°C° 0 mm 3 m/S 739 mmHg 66%
10:00 +27°C° 0 mm 3 m/S 740 mmHg 62%
11:00 +28°C° 0 mm 3 m/S 740 mmHg 57%
12:00 +29°C° 0 mm 3 m/S 739 mmHg 55%
13:00 +29°C° 0 mm 3 m/S 739 mmHg 53%
14:00 +30°C° 0 mm 3 m/S 739 mmHg 51%
15:00 +29°C° 0 mm 3 m/S 739 mmHg 53%
16:00 +29°C° 0 mm 3 m/S 738 mmHg 55%
17:00 +29°C° 0 mm 3 m/S 738 mmHg 57%
18:00 +27°C° 0 mm 3 m/S 738 mmHg 63%
19:00 +25°C° 0 mm 2 m/S 738 mmHg 68%
20:00 +24°C° 0 mm 2 m/S 738 mmHg 74%
21:00 +23°C° 0 mm 2 m/S 738 mmHg 79%
22:00 +21°C° 0 mm 2 m/S 738 mmHg 84%
23:00 +20°C° 0 mm 2 m/S 738 mmHg 89%

Morgen, 8 August, Samstag

Zeit Temperatur Niederschläge Wind Luftdruck Luftfeuchtigkeit
00:00 +20°C° 0 mm 2 m/S 738 mmHg 91%
01:00 +20°C° 0 mm 2 m/S 738 mmHg 93%
02:00 +19°C° 0 mm 2 m/S 738 mmHg 95%
03:00 +19°C° 0 mm 2 m/S 738 mmHg 95%
04:00 +19°C° 0 mm 2 m/S 738 mmHg 96%
05:00 +18°C° 0 mm 2 m/S 738 mmHg 97%
06:00 +20°C° 0 mm 2 m/S 738 mmHg 92%
07:00 +21°C° 0 mm 3 m/S 738 mmHg 87%
08:00 +22°C° 0 mm 3 m/S 738 mmHg 82%
09:00 +24°C° 0.1 mm 3 m/S 738 mmHg 77%
10:00 +26°C° 0.1 mm 3 m/S 738 mmHg 72%
11:00 +27°C° 0.1 mm 4 m/S 738 mmHg 67%
12:00 +27°C° 0.2 mm 4 m/S 738 mmHg 65%
13:00 +28°C° 0.2 mm 4 m/S 738 mmHg 63%
14:00 +28°C° 0.2 mm 4 m/S 737 mmHg 61%
15:00 +28°C° 0 mm 4 m/S 737 mmHg 62%
16:00 +27°C° 0 mm 4 m/S 737 mmHg 63%
17:00 +27°C° 0 mm 4 m/S 737 mmHg 64%
18:00 +26°C° 0 mm 3 m/S 737 mmHg 69%
19:00 +24°C° 0 mm 3 m/S 737 mmHg 74%
20:00 +21°C° 0 mm 2 m/S 737 mmHg 79%
21:00 +21°C° 0 mm 2 m/S 737 mmHg 81%
22:00 +20°C° 0 mm 2 m/S 737 mmHg 83%
23:00 +19°C° 0 mm 2 m/S 737 mmHg 85%

übermorgen, 9 August, Sonntag

Zeit Temperatur Niederschläge Wind Luftdruck Luftfeuchtigkeit
00:00 +19°C° 0 mm 2 m/S 737 mmHg 87%
01:00 +18°C° 0 mm 2 m/S 737 mmHg 88%
02:00 +19°C° 0 mm 1 m/S 737 mmHg 90%
03:00 +19°C° 0 mm 1 m/S 736 mmHg 91%
04:00 +18°C° 0 mm 1 m/S 736 mmHg 91%
05:00 +18°C° 0 mm 1 m/S 736 mmHg 92%
06:00 +19°C° 0 mm 2 m/S 736 mmHg 88%
07:00 +20°C° 0 mm 2 m/S 736 mmHg 83%
08:00 +23°C° 0 mm 2 m/S 737 mmHg 79%
09:00 +24°C° 0.1 mm 2 m/S 737 mmHg 74%
10:00 +25°C° 0.1 mm 2 m/S 737 mmHg 68%
11:00 +26°C° 0.1 mm 3 m/S 737 mmHg 63%
12:00 +26°C° 0.1 mm 2 m/S 736 mmHg 62%
13:00 +27°C° 0.1 mm 2 m/S 736 mmHg 60%
14:00 +27°C° 0.1 mm 2 m/S 736 mmHg 59%
15:00 +27°C° 0.1 mm 2 m/S 736 mmHg 60%
16:00 +27°C° 0.1 mm 2 m/S 735 mmHg 61%
17:00 +27°C° 0.1 mm 2 m/S 735 mmHg 61%
18:00 +25°C° 0 mm 2 m/S 735 mmHg 67%
19:00 +24°C° 0 mm 2 m/S 735 mmHg 73%
20:00 +21°C° 0 mm 2 m/S 735 mmHg 79%
21:00 +21°C° 0 mm 1 m/S 735 mmHg 82%
22:00 +21°C° 0 mm 1 m/S 735 mmHg 84%
23:00 +20°C° 0 mm 1 m/S 735 mmHg 87%

10 August, Montag

Zeit Temperatur Niederschläge Wind Luftdruck Luftfeuchtigkeit
00:00 +20°C° 0 mm 1 m/S 735 mmHg 87%
01:00 +19°C° 0 mm 1 m/S 735 mmHg 88%
02:00 +19°C° 0 mm 1 m/S 735 mmHg 89%
03:00 +19°C° 0 mm 1 m/S 735 mmHg 90%
04:00 +19°C° 0 mm 1 m/S 735 mmHg 90%
05:00 +18°C° 0 mm 1 m/S 735 mmHg 91%
06:00 +20°C° 0 mm 1 m/S 735 mmHg 86%
07:00 +21°C° 0 mm 1 m/S 735 mmHg 82%
08:00 +22°C° 0 mm 1 m/S 735 mmHg 78%
09:00 +24°C° 0.2 mm 1 m/S 735 mmHg 73%
10:00 +25°C° 0.2 mm 1 m/S 735 mmHg 68%
11:00 +26°C° 0.2 mm 1 m/S 735 mmHg 63%
12:00 +27°C° 0 mm 2 m/S 735 mmHg 60%
13:00 +27°C° 0 mm 2 m/S 735 mmHg 57%
14:00 +28°C° 0 mm 2 m/S 735 mmHg 54%
15:00 +28°C° 0 mm 2 m/S 734 mmHg 56%
16:00 +27°C° 0 mm 2 m/S 734 mmHg 58%
17:00 +27°C° 0 mm 2 m/S 734 mmHg 61%
18:00 +25°C° 0.1 mm 2 m/S 734 mmHg 66%
19:00 +24°C° 0.1 mm 1 m/S 734 mmHg 71%
20:00 +22°C° 0.1 mm 1 m/S 734 mmHg 76%
21:00 +21°C° 0 mm 1 m/S 734 mmHg 77%
22:00 +21°C° 0 mm 1 m/S 734 mmHg 79%
23:00 +18°C° 0 mm 0 m/S 734 mmHg 80%

11 August, Dienstag

Zeit Temperatur Niederschläge Wind Luftdruck Luftfeuchtigkeit
00:00 +18°C° 0 mm 0 m/S 734 mmHg 82%
01:00 +18°C° 0 mm 0 m/S 734 mmHg 83%
02:00 +17°C° 0 mm 0 m/S 734 mmHg 84%
03:00 +17°C° 0 mm 0 m/S 734 mmHg 85%
04:00 +17°C° 0 mm 0 m/S 734 mmHg 85%
05:00 +17°C° 0 mm 0 m/S 734 mmHg 86%
06:00 +18°C° 0 mm 0 m/S 734 mmHg 82%
07:00 +19°C° 0 mm 0 m/S 734 mmHg 78%
08:00 +21°C° 0 mm 0 m/S 734 mmHg 74%
09:00 +22°C° 0 mm 0 m/S 734 mmHg 69%
10:00 +24°C° 0 mm 0 m/S 734 mmHg 64%
11:00 +25°C° 0 mm 0 m/S 734 mmHg 59%
12:00 +26°C° 0 mm 0 m/S 734 mmHg 56%
13:00 +26°C° 0 mm 0 m/S 733 mmHg 54%
14:00 +27°C° 0 mm 0 m/S 733 mmHg 51%
15:00 +27°C° 0 mm 0 m/S 733 mmHg 51%
16:00 +28°C° 0 mm 1 m/S 733 mmHg 52%
17:00 +28°C° 0 mm 1 m/S 733 mmHg 52%
18:00 +26°C° 0 mm 1 m/S 733 mmHg 59%
19:00 +25°C° 0 mm 1 m/S 733 mmHg 65%
20:00 +23°C° 0 mm 1 m/S 732 mmHg 71%
21:00 +22°C° 0.1 mm 1 m/S 732 mmHg 74%
22:00 +21°C° 0.1 mm 1 m/S 732 mmHg 77%
23:00 +21°C° 0.1 mm 1 m/S 732 mmHg 80%

12 August, Mittwoch

Zeit Temperatur Niederschläge Wind Luftdruck Luftfeuchtigkeit
00:00 +20°C° 0.1 mm 1 m/S 732 mmHg 80%
01:00 +20°C° 0.1 mm 1 m/S 732 mmHg 81%
02:00 +18°C° 0.1 mm 0 m/S 732 mmHg 82%
03:00 +18°C° 0.5 mm 0 m/S 732 mmHg 83%
04:00 +18°C° 0.5 mm 0 m/S 731 mmHg 85%
05:00 +17°C° 0.5 mm 0 m/S 731 mmHg 86%
06:00 +18°C° 0.5 mm 0 m/S 731 mmHg 84%
07:00 +21°C° 0.5 mm 1 m/S 732 mmHg 82%
08:00 +22°C° 0.5 mm 1 m/S 732 mmHg 80%
09:00 +23°C° 1.4 mm 1 m/S 732 mmHg 76%
10:00 +24°C° 1.4 mm 1 m/S 732 mmHg 71%
11:00 +26°C° 1.4 mm 1 m/S 732 mmHg 66%
12:00 +26°C° 1.3 mm 2 m/S 732 mmHg 66%
13:00 +26°C° 1.3 mm 2 m/S 732 mmHg 66%
14:00 +26°C° 1.3 mm 3 m/S 732 mmHg 65%
15:00 +26°C° 1.5 mm 3 m/S 731 mmHg 69%
16:00 +25°C° 1.5 mm 3 m/S 731 mmHg 73%
17:00 +24°C° 1.5 mm 3 m/S 731 mmHg 77%
18:00 +22°C° 0.7 mm 3 m/S 731 mmHg 81%
19:00 +20°C° 0.7 mm 4 m/S 731 mmHg 85%
20:00 +19°C° 0.7 mm 4 m/S 731 mmHg 89%
21:00 +18°C° 0.1 mm 4 m/S 731 mmHg 90%
22:00 +18°C° 0.1 mm 4 m/S 731 mmHg 90%
23:00 +17°C° 0.1 mm 4 m/S 732 mmHg 90%
Mehr zeigen